FW5697 Weather Reports


Display with metric or nautical units.
time (UTC)temp
F
wind
direction
speed
MPH
gust
MPH
rain 1hr
in
rain 24hr
in
rain mn
in
humidity
%
barometer
mb
20260508030030 62 0 0.0 0.0 0.00 3.48 3.45 84 1014.4
20260508024527 63 0 0.0 0.0 0.00 3.60 3.45 83 1014.0
20260508023027 63 0 0.0 0.0 0.00 3.60 3.45 82 1014.1
20260508021528 64 0 0.0 0.0 0.00 3.60 3.45 80 1014.2
20260508020031 65 0 0.0 1.0 0.00 3.60 3.45 79 1013.9
20260508014535 65 213 0.0 2.0 0.00 3.60 3.45 78 1013.7
20260508013028 65 0 0.0 5.0 0.00 3.60 3.45 79 1013.6
20260508011526 65 0 0.0 0.0 0.00 3.60 3.45 83 1013.5
20260508010044 66 0 0.0 1.0 0.00 3.60 3.45 82 1013.3
20260508004532 66 64 0.0 3.0 0.00 3.60 3.45 83 1013.1
20260508003027 67 0 0.0 3.0 0.00 3.60 3.45 82 1013.0
20260508001526 68 355 1.0 4.0 0.00 3.60 3.45 80 1012.8
20260508000027 69 143 1.0 5.0 0.00 3.60 3.45 80 1012.6
20260507234528 70 0 0.0 5.0 0.00 3.60 3.45 78 1012.5
20260507233030 71 355 1.0 5.0 0.00 3.60 3.45 77 1012.3
20260507231528 72 292 1.0 3.0 0.00 3.60 3.45 76 1012.1
20260507230038 73 34 1.0 6.0 0.00 3.60 3.45 74 1012.1
20260507224530 74 0 1.0 8.0 0.00 3.60 3.45 74 1011.8
20260507223032 72 207 1.0 7.0 0.00 3.60 3.45 76 1011.8
20260507221529 74 159 2.0 8.0 0.00 3.60 3.45 73 1011.6
20260507220029 74 168 1.0 6.0 0.00 3.60 3.45 74 1011.4
20260507214530 74 163 1.0 6.0 0.00 3.60 3.45 74 1011.6
20260507213030 74 112 4.0 11.0 0.00 3.60 3.45 73 1011.7
20260507211537 74 0 1.0 9.0 0.00 3.60 3.45 75 1011.5
20260507210027 74 309 4.0 10.0 0.00 3.60 3.45 74 1011.5
20260507204531 73 68 3.0 7.0 0.00 3.60 3.45 77 1011.3
20260507203033 73 101 2.0 8.0 0.00 3.60 3.45 78 1011.3
20260507201527 72 191 4.0 9.0 0.00 3.60 3.45 78 1011.3
20260507200028 73 109 3.0 16.0 0.00 3.60 3.45 77 1011.5
20260507194531 74 0 2.0 11.0 0.00 3.60 3.45 76 1011.6
20260507193033 74 248 4.0 12.0 0.00 3.60 3.45 76 1011.5
20260507191530 74 0 1.0 8.0 0.00 3.60 3.45 78 1011.2
20260507190028 74 172 2.0 7.0 0.00 3.60 3.45 78 1011.5
20260507184528 74 33 2.0 8.0 0.00 3.60 3.45 78 1011.5
20260507183041 74 194 2.0 9.0 0.00 3.60 3.45 78 1011.4
20260507181530 74 109 4.0 9.0 0.00 3.60 3.45 78 1011.5
20260507180032 72 272 2.0 7.0 0.00 3.60 3.45 82 1011.5
20260507174530 72 201 2.0 6.0 0.00 3.60 3.45 83 1011.7
20260507173030 71 185 2.0 7.0 0.00 3.60 3.45 87 1011.6
20260507171529 70 180 1.0 9.0 0.00 3.60 3.45 89 1011.9
20260507170028 69 0 1.0 4.0 0.00 3.60 3.45 93 1012.1
20260507164531 68 196 3.0 7.0 0.00 3.60 3.45 93 1011.9
20260507163027 67 198 1.0 6.0 0.12 3.60 3.45 96 1011.9
20260507161539 67 207 0.0 5.0 0.22 3.60 3.45 98 1012.0
20260507160040 67 180 0.0 3.0 0.24 3.60 3.45 98 1011.8
20260507154531 66 207 1.0 2.0 0.26 3.60 3.45 97 1011.7
20260507153031 66 0 0.0 3.0 0.13 3.46 3.31 97 1011.4
20260507151528 66 284 1.0 4.0 0.05 3.37 3.22 97 1011.6
20260507150030 66 29 0.0 2.0 0.04 3.36 3.21 97 1011.4
20260507144534 66 34 0.0 5.0 0.03 3.34 3.19 97 1011.6
20260507143029 66 9 2.0 5.0 0.04 3.33 3.18 97 1011.5
20260507141527 66 38 1.0 6.0 0.22 3.32 3.17 97 1011.4
20260507140029 67 43 2.0 10.0 0.55 3.32 3.17 97 1010.7
20260507134528 68 157 0.0 3.0 0.76 3.31 3.16 98 1010.8
20260507133028 68 188 1.0 5.0 1.05 3.29 3.14 98 1010.7
20260507131532 67 182 1.0 9.0 1.26 3.09 2.94 98 1010.7
20260507130028 67 220 3.0 9.0 1.16 2.74 2.59 98 1010.3
20260507124545 67 207 2.0 4.0 1.37 2.53 2.38 97 1009.7
20260507123030 67 183 3.0 8.0 1.51 2.20 2.05 97 1009.8
20260507121528 67 190 1.0 3.0 1.15 1.82 1.67 97 1010.0
20260507120028 67 207 2.0 6.0 0.88 1.55 1.40 97 1009.9
20260507114529 67 218 1.0 6.0 0.46 1.13 0.98 97 1009.8
20260507113027 66 202 2.0 5.0 0.01 0.68 0.52 97 1009.4
20260507111528 66 221 2.0 6.0 0.00 0.67 0.52 97 1009.3
20260507110031 66 178 1.0 4.0 0.01 0.67 0.52 97 1009.4
20260507104528 66 243 1.0 4.0 0.04 0.67 0.52 97 1009.8
20260507103030 66 194 0.0 5.0 0.07 0.67 0.52 97 1009.8
20260507101530 66 225 0.0 4.0 0.15 0.67 0.52 97 1009.4
20260507100027 66 0 1.0 8.0 0.17 0.66 0.51 97 1009.3
20260507094526 66 164 2.0 6.0 0.14 0.63 0.48 97 1008.9
20260507093034 66 204 2.0 4.0 0.10 0.58 0.44 97 1009.8
20260507091538 66 0 0.0 2.0 0.02 0.51 0.36 97 1011.5
20260507090027 66 0 0.0 4.0 0.01 0.49 0.34 97 1010.3
20260507084532 66 198 1.0 3.0 0.01 0.49 0.34 97 1010.9
20260507083029 66 197 1.0 3.0 0.01 0.49 0.34 97 1011.0
20260507081528 66 0 0.0 2.0 0.01 0.49 0.34 97 1010.4
20260507080029 66 186 1.0 3.0 0.05 0.48 0.33 97 1010.7
20260507074528 66 215 1.0 4.0 0.08 0.48 0.33 96 1010.9
20260507073029 66 184 1.0 3.0 0.09 0.48 0.33 96 1010.8
20260507071528 66 0 0.0 5.0 0.10 0.48 0.33 96 1010.5
20260507070034 66 192 2.0 5.0 0.09 0.43 0.28 96 1010.1
20260507064528 66 213 2.0 6.0 0.09 0.40 0.25 96 1010.5
20260507063041 67 192 2.0 5.0 0.14 0.39 0.24 96 1010.9
20260507061533 67 0 2.0 8.0 0.17 0.38 0.23 95 1011.3
20260507060038 67 189 1.0 5.0 0.16 0.34 0.19 95 1011.1
20260507054526 67 166 3.0 7.0 0.14 0.31 0.16 95 1011.4
20260507053030 67 200 2.0 6.0 0.09 0.25 0.10 95 1012.8
20260507051528 68 217 2.0 5.0 0.05 0.21 0.06 94 1013.1
20260507050034 68 207 2.0 6.0 0.03 0.18 0.03 94 1012.8
20260507044530 68 206 2.0 9.0 0.02 0.17 0.02 93 1012.3
20260507043028 68 198 1.0 4.0 0.03 0.16 0.01 94 1012.5
20260507041530 68 200 1.0 4.0 0.04 0.16 0.01 94 1012.8
20260507040029 68 209 1.0 4.0 0.03 0.15 0.00 94 1012.2
20260507034534 69 0 0.0 3.0 0.15 0.15 0.15 93 1012.2
20260507033030 69 268 1.0 4.0 0.13 0.13 0.13 93 1011.8
20260507031529 70 189 1.0 6.0 0.12 0.12 0.12 92 1012.8